METAR és
SPECI
METAR LHBP 192200Z 07006KT 040V100 CAVOK 10/04 Q1009 NOSIG=
METAR LHBP 192130Z 05004KT 030V090 CAVOK 10/04 Q1008 NOSIG=
METAR LHBP 192100Z 05006KT CAVOK 11/04 Q1008 NOSIG=
METAR LHBP 192030Z 05008KT CAVOK 11/04 Q1008 NOSIG=
METAR LHBP 192000Z 05007KT CAVOK 11/05 Q1008 NOSIG=
METAR LHBP 191930Z 04008KT CAVOK 12/05 Q1008 NOSIG=
TAF
TAF LHBP 191700Z 1918/2018 01008KT CAVOK BECMG 1918/1921 08008KT TEMPO 2003/2009 9999 SCT020 BKN100 BECMG 2009/2012 BKN033 PROB40 TEMPO 2012/2018 -SHRA FEW027CB BKN033 BECMG 2015/2018 VRB03KT=
GAMET
Nincs érvényes távirat! 
FAHU41 LHBM 191100
LHCC GAMET VALID 191200/191800 LHBP-
BUDAPEST FIR BLW FL100
SECN I
SIGWX: 12/14 ISOL TSRA W OF E01730 AND E OF E02100
14/18 ISOL TSRA W OF E02100
SIG CLD: 12/18 ISOL TCU CB 3000-4000/XXX FT AGL
SIGMETS APPLICABLE: NIL=
AIRMET
Nincs érvényes távirat! 
WAHU41 LHBM 131040
LHCC AIRMET 01 VALID 131040/131200 LHBP-
LHCC BUDAPEST FIR ISOL TS AND ISOL CB 3000/XXX FT AGL OBS
AT N4712 E01645 MOV SE NC=
SIGMET
Nincs érvényes távirat! 
WSHU31 LHBM 191330
LHCC SIGMET 02 VALID 191330/191500 LHBP-
LHCC BUDAPEST FIR SQL TS OBS N OF N4831 E02117 - N4729 E01953 -
N4805 E01921 TOP FL300 MOV WNW NC=
SIGMET
Vulkáni hamufelhő
Nincs érvényes távirat! 
WVHU31 LHBM 271515 CCA
LHCC SIGMET 03 VALID 271515/271800 LHBP-
LHCC BUDAPEST FIR EXERCISE VOLCEX12/01
CNL VA SIGMET 02 271200/271800
EXERCISE EXERCISE EXERCISE VOLCEX12/01=